Tallulah, LA

8:15 PM CST on February 24, 2017 (GMT -0600)
Vicksburg Tallulah Regional

Weather History for KTVR - October, 2011

Change the Weather History Date:

Friday, October 7, 2011

  Actual Average Record
Temperature  
Mean Temperature 70 °F 69 °F  
Max Temperature 87 °F 81 °F 93 °F (2016)
Min Temperature 52 °F 56 °F 35 °F (1964)
Degree Days  
Heating Degree Days 0 1  
Month to date heating degree days 22 7  
Since 1 July heating degree days 23 12  
Cooling Degree Days 5 5  
Month to date cooling degree days 9 39  
Year to date cooling degree days 2500 2136  
Growing Degree Days 20 (Base 50)    
Moisture  
Dew Point 58 °F    
Average Humidity 70    
Maximum Humidity 100    
Minimum Humidity 40    
Precipitation  
Precipitation 0.00 in 0.14 in 1.79 in (1998)
Month to date precipitation 0.00 0.93  
Year to date precipitation 27.10 40.39  
Sea Level Pressure  
Sea Level Pressure 30.19 in    
Wind  
Wind Speed 7 mph (ESE)    
Max Wind Speed 16 mph    
Max Gust Speed 25 mph    
Visibility 10 miles    
Events      
T = Trace of Precipitation, MM = Missing Value Source: NWS Daily Summary

Daily Weather History Graph

Daily Weather History Graph

Search for Another Location

Airport or City:

Trip Planner

Search our weather history database for the weather conditions in past years. The results will help you decide how hot, cold, wet, or windy it might be!

Date:

Astronomy

Oct. 07, 2011 Rise Set
Actual Time 7:02 AM CDT 6:41 PM CDT
Civil Twilight 6:37 AM CDT 7:06 PM CDT
Nautical Twilight 6:09 AM CDT 7:34 PM CDT
Astronomical Twilight 5:40 AM CDT 8:02 PM CDT
Moon 4:13 PM CDT (10/7) 3:04 AM CDT (10/7)
Length of Visible Light 12h 28m
Length of Day
11h 39m
Waxing Gibbous, 83% of the Moon is Illuminated
Oct 7
Waxing Gibbous
Oct 11
Full
Oct 19
Last Quarter
Oct 26
New
Nov 2
First Quarter

Hourly Weather History & Observations

Time (CDT) Temp. Heat Index Dew Point Humidity Pressure Visibility Wind Dir Wind Speed Gust Speed Precip Events Conditions
12:53 AM 64.9 °F - 55.9 °F 73% 30.17 in 10.0 mi ESE 4.6 mph - N/A   Clear
1:53 AM 64.0 °F - 55.9 °F 75% 30.17 in 10.0 mi East 5.8 mph - N/A   Clear
2:53 AM 62.1 °F - 55.9 °F 80% 30.17 in 10.0 mi Calm Calm - N/A   Clear
3:53 AM 59.0 °F - 55.9 °F 90% 30.17 in 10.0 mi Calm Calm - N/A   Clear
4:53 AM 54.0 °F - 53.1 °F 97% 30.18 in 10.0 mi Calm Calm - N/A   Clear
5:53 AM 54.0 °F - 53.1 °F 97% 30.19 in 4.0 mi Calm Calm - N/A   Clear
6:53 AM 54.0 °F - 52.0 °F 93% 30.21 in 10.0 mi Calm Calm - N/A   Clear
7:53 AM 63.0 °F - 57.0 °F 81% 30.22 in 10.0 mi ESE 5.8 mph - N/A   Clear
8:53 AM 69.1 °F - 57.0 °F 65% 30.23 in 10.0 mi ESE 11.5 mph - N/A   Clear
9:53 AM 73.9 °F - 57.0 °F 55% 30.25 in 10.0 mi ESE 9.2 mph - N/A   Clear
10:53 AM 79.0 °F - 57.9 °F 48% 30.25 in 10.0 mi ESE 9.2 mph - N/A   Clear
11:53 AM 82.0 °F 82.1 °F 59.0 °F 45% 30.24 in 10.0 mi SE 9.2 mph 19.6 mph N/A   Clear
12:53 PM 82.9 °F 82.8 °F 59.0 °F 44% 30.21 in 10.0 mi SSE 8.1 mph - N/A   Clear
1:53 PM 84.9 °F 84.8 °F 60.1 °F 43% 30.19 in 10.0 mi East 11.5 mph 19.6 mph N/A   Mostly Cloudy
2:53 PM 87.1 °F 86.7 °F 60.1 °F 40% 30.17 in 10.0 mi SE 10.4 mph - N/A   Partly Cloudy
3:53 PM 86.0 °F 85.7 °F 60.1 °F 41% 30.16 in 10.0 mi East 16.1 mph - N/A   Partly Cloudy
4:53 PM 84.9 °F 84.8 °F 60.1 °F 43% 30.15 in 10.0 mi East 9.2 mph - N/A   Partly Cloudy
5:53 PM 82.0 °F 82.4 °F 60.1 °F 47% 30.15 in 10.0 mi East 9.2 mph - N/A   Clear
6:53 PM 75.9 °F - 60.1 °F 58% 30.16 in 10.0 mi ENE 5.8 mph - N/A   Clear
7:53 PM 73.0 °F - 60.1 °F 64% 30.17 in 10.0 mi East 3.5 mph - N/A   Clear
8:53 PM 70.0 °F - 60.1 °F 71% 30.19 in 10.0 mi East 5.8 mph - N/A   Clear
9:53 PM 72.0 °F - 60.1 °F 66% 30.20 in 10.0 mi East 8.1 mph - N/A   Clear
10:53 PM 71.1 °F - 57.9 °F 63% 30.20 in 10.0 mi ESE 8.1 mph - N/A   Clear
11:53 PM 70.0 °F - 57.0 °F 63% 30.21 in 10.0 mi ESE 8.1 mph - N/A   Clear